Wind_Speed
65 63 62 61 61 61 61 60 59 58 58 58 57 56 55 54 51 50 47 45 44 43 42 40 38 35 33 31 29 28 25 23 21 22 21 21 20 21 23 24 25 26 26
66 63 60 58 57 58 60 62 64 63 63 62 62 62 61 60 59 57 54 51 49 47 45 43 41 39 36 34 32 30 27 24 22 22 22 21 21 21 22 24 25 26 26
58 55 52 49 48 48 50 54 59 63 66 67 67 66 65 65 63 61 59 56 54 51 49 46 44 41 38 36 34 32 29 26 23 23 23 21 21 20 21 23 24 25 25
53 51 48 45 43 41 41 42 46 52 59 64 68 70 70 70 68 65 63 60 57 55 52 49 47 44 41 39 36 34 32 29 25 24 23 21 20 20 21 22 23 24 23
53 51 49 47 44 41 39 39 39 41 45 52 59 65 69 71 72 70 67 64 60 57 55 52 49 46 43 40 38 36 33 30 27 25 23 22 20 20 20 20 21 21 21
53 52 51 50 47 45 43 42 41 40 39 40 44 50 58 64 69 72 71 68 64 60 57 54 51 48 45 42 40 37 35 31 28 25 24 22 21 20 19 19 20 20 20
54 53 52 52 50 48 47 45 42 41 39 38 37 39 43 50 58 64 69 70 67 63 59 56 52 49 46 44 42 39 36 33 29 26 24 22 20 19 18 19 19 19 19
55 55 54 53 51 50 49 48 46 44 42 41 39 37 36 38 42 49 57 63 65 65 62 58 54 51 48 45 43 40 37 34 30 27 24 22 21 20 19 19 19 19 19
55 54 53 52 50 49 48 46 45 44 43 42 40 38 36 34 34 37 42 49 56 60 62 61 57 52 49 46 44 41 38 34 31 28 26 23 21 20 19 19 19 19 19
54 52 51 51 49 47 45 44 42 42 41 41 39 38 36 34 33 33 35 39 45 52 57 59 58 54 50 47 44 41 38 35 31 29 26 24 21 19 19 19 19 19 19
52 49 48 48 46 45 43 41 39 39 38 38 38 37 36 35 34 33 33 34 38 44 50 55 57 55 51 48 44 42 39 36 33 30 27 24 21 19 19 18 18 18 19
45 43 42 41 40 40 38 37 37 36 35 35 35 35 35 35 34 33 33 32 34 38 44 49 53 54 51 48 45 43 40 37 34 31 27 24 22 20 19 18 17 17 17
38 35 33 31 31 32 32 32 32 32 32 32 32 31 32 32 32 32 32 32 33 36 41 46 50 51 49 47 44 42 39 37 34 31 27 24 22 20 18 18 18 18 17
32 27 24 22 21 22 24 26 26 26 27 28 29 29 28 28 28 29 29 31 31 34 40 45 49 50 47 45 43 40 38 35 33 30 27 24 22 19 18 18 19 19 19
27 21 17 14 13 13 15 17 19 20 22 23 24 26 26 26 26 26 26 28 31 33 40 46 50 51 47 45 42 40 38 35 32 28 25 23 21 20 20 20 20 20 20
26 20 14 8 5 6 8 11 13 15 17 18 20 22 23 24 24 25 25 27 30 33 39 47 51 50 48 45 43 40 37 33 30 27 24 23 21 21 20 20 21 20 20
28 22 16 10 6 2 2 5 7 10 12 14 16 17 18 20 22 23 25 26 28 32 40 50 51 49 48 46 43 40 35 32 29 26 24 23 22 21 21 21 21 21 21
29 24 20 16 12 8 6 4 5 7 9 11 12 14 15 16 18 21 24 25 27 31 40 49 50 49 47 44 41 39 35 31 28 26 24 23 22 21 21 21 22 22 23
30 26 22 19 16 14 11 9 7 5 5 6 8 10 11 13 16 18 21 23 26 31 39 48 49 49 48 44 40 37 34 30 28 26 25 23 22 22 22 23 23 23 24
31 27 23 20 18 16 14 11 9 8 6 5 5 7 9 11 14 17 19 23 26 31 39 45 47 48 45 41 38 35 32 30 28 26 25 24 23 23 23 24 25 25 25
31 28 24 21 18 16 14 12 10 9 8 7 7 8 10 14 18 19 20 22 25 31 37 41 43 43 42 39 36 33 31 29 28 26 25 24 24 24 25 26 26 26 25
31 28 25 22 19 17 15 13 12 11 11 10 10 12 15 18 20 21 22 24 28 33 37 38 39 38 37 35 33 31 30 29 27 25 25 24 25 25 26 26 26 25 25
30 28 25 24 22 20 19 17 16 16 15 15 16 18 19 21 23 24 26 27 31 34 35 35 35 35 34 32 30 29 28 27 26 25 25 25 25 25 25 25 25 25 25
31 28 26 24 22 21 20 19 19 18 18 19 20 21 24 25 26 28 29 31 32 32 32 32 32 30 29 28 27 27 27 26 25 25 24 24 24 24 24 24 24 25 25
32 29 26 24 23 22 21 21 21 21 21 22 24 26 28 29 29 30 30 30 30 30 29 30 29 28 27 26 25 25 24 23 23 23 22 22 22 22 22 22 23 23 24
30 29 26 25 24 23 22 22 22 23 24 24 25 27 29 29 29 28 28 28 27 27 27 27 26 25 24 24 23 22 22 21 21 20 20 20 20 20 21 21 22 23 24
Wind_Direction
292 288 284 279 274 271 268 265 263 261 259 257 256 255 253 252 251 249 249 249 250 250 251 252 255 258 262 266 270 273 276 280 283 285 283 275 265 254 247 242 239 238 240
297 295 291 286 279 273 268 263 260 258 256 255 254 253 252 251 250 249 249 248 249 249 250 250 252 255 258 262 265 267 270 275 279 281 280 276 268 258 249 242 240 240 241
300 298 295 291 285 278 271 263 258 255 254 252 251 250 250 250 250 250 248 248 248 248 248 249 250 252 254 257 260 262 264 268 273 277 276 274 269 260 249 243 242 242 243
299 297 295 292 289 285 280 272 263 256 253 251 250 249 248 248 248 248 247 247 246 246 246 246 247 249 251 253 255 257 259 263 267 272 274 271 266 260 252 246 244 243 245
296 294 292 289 286 283 280 277 274 269 261 255 251 248 247 246 246 246 245 245 244 243 243 243 244 245 247 249 251 252 255 258 262 266 269 267 262 257 251 246 244 244 245
293 291 288 285 282 280 277 274 272 270 268 264 258 252 248 246 245 244 243 242 242 241 240 240 241 242 243 245 246 248 250 253 256 260 263 262 258 255 250 245 244 244 244
291 289 286 283 280 278 275 273 270 268 265 264 263 259 254 249 246 244 243 241 240 238 238 237 237 237 239 241 242 244 246 249 251 254 257 257 255 251 246 244 243 243 241
290 286 284 281 278 276 273 270 268 266 263 262 260 259 258 254 250 246 243 240 239 237 235 234 234 234 235 236 238 241 243 244 246 249 251 252 250 247 244 242 241 242 240
289 285 282 279 276 274 271 268 265 263 260 259 257 256 255 253 252 249 245 240 236 234 232 231 231 231 231 233 235 238 238 239 242 246 246 247 246 243 242 242 242 240 241
290 285 281 278 274 271 268 265 262 260 257 254 252 251 250 250 251 251 248 241 235 231 228 227 227 227 227 230 232 233 234 236 238 239 241 242 241 240 239 241 242 239 238
294 287 281 276 272 268 264 262 259 256 254 251 249 247 246 246 249 250 247 240 234 229 224 222 222 222 223 226 228 229 231 233 233 233 236 236 236 238 239 240 242 241 238
300 293 285 277 270 265 260 257 255 253 250 248 245 244 244 245 247 248 246 240 232 226 220 217 215 215 217 221 224 226 229 229 229 229 231 232 233 235 236 238 239 239 238
308 300 291 280 270 262 256 251 249 248 245 243 242 242 242 242 243 244 242 238 230 223 216 211 208 207 210 216 220 222 223 224 225 225 227 230 231 232 233 236 236 236 239
321 312 301 286 271 259 251 246 243 242 240 238 237 238 238 238 237 238 237 230 222 217 209 203 200 199 203 208 213 216 217 217 218 220 223 227 229 229 230 232 233 235 234
338 330 317 299 277 257 246 239 236 234 233 233 233 233 232 231 232 231 228 222 215 210 204 197 192 193 196 202 206 210 210 210 212 214 218 223 225 226 227 229 229 228 225
358 355 350 338 306 257 240 231 225 225 225 225 226 227 226 227 226 224 222 217 210 205 200 193 186 187 190 195 200 202 202 204 207 210 215 220 222 222 222 222 221 220 218
15 17 21 26 33 47 161 190 200 207 211 213 213 217 220 222 221 219 216 212 207 200 195 190 184 183 186 190 193 196 198 201 205 208 213 216 217 216 216 215 213 211 209
25 30 38 44 50 62 85 120 160 184 196 202 208 212 215 217 214 210 208 205 203 197 192 189 183 181 182 186 189 191 194 198 201 205 208 210 210 210 209 207 205 203 201
31 36 43 49 57 64 76 90 105 127 156 182 199 203 206 206 200 199 198 196 192 188 186 183 180 179 180 183 186 188 191 195 199 202 203 204 206 205 204 203 201 200 198
33 39 45 50 55 62 71 78 83 90 103 124 154 171 178 177 176 174 175 176 177 177 176 177 177 177 178 181 184 186 189 193 196 198 199 201 202 201 201 201 199 198 198
35 39 43 47 53 58 63 66 71 77 84 97 112 132 147 151 150 153 155 159 167 169 168 170 172 174 177 179 180 183 188 192 194 197 198 199 198 199 200 200 199 199 203
35 38 42 46 49 53 58 64 67 73 80 86 99 118 129 135 136 137 142 149 156 162 164 166 169 171 173 177 180 184 188 191 193 194 195 196 197 198 199 200 202 206 210
34 37 41 45 51 57 64 68 73 78 81 85 97 111 120 123 126 132 137 141 147 154 158 161 165 167 170 174 177 181 185 188 190 192 193 194 196 198 200 203 207 212 219
34 38 42 47 53 58 65 70 74 76 79 87 98 108 114 118 123 128 131 135 140 146 153 157 159 163 167 171 175 179 182 185 187 189 191 193 197 200 204 209 214 220 227
36 40 46 51 56 61 66 71 76 81 87 93 100 107 113 118 123 126 127 132 136 142 148 153 157 160 164 168 171 174 177 181 184 188 191 196 201 207 212 218 224 229 236
38 43 49 54 60 66 71 76 83 88 92 96 101 108 113 116 119 123 128 131 134 139 143 147 151 154 159 164 168 172 176 180 185 191 198 204 210 215 221 227 233 239 245
Height
5708 5707 5706 5704 5703 5703 5703 5704 5706 5708 5710 5713 5715 5717 5720 5723 5726 5729 5732 5735 5738 5741 5744 5748 5751 5753 5755 5756 5757 5758 5758 5758 5757 5756 5754 5752 5752 5752 5754 5755 5758 5761 5763
5681 5679 5677 5676 5676 5677 5678 5679 5681 5684 5687 5691 5694 5697 5701 5704 5708 5713 5716 5720 5724 5728 5732 5736 5740 5743 5746 5748 5749 5750 5751 5751 5751 5750 5748 5747 5746 5747 5748 5750 5752 5754 5757
5661 5658 5655 5652 5651 5651 5651 5653 5655 5658 5662 5666 5671 5675 5679 5684 5688 5694 5699 5704 5709 5714 5718 5723 5728 5732 5735 5738 5741 5742 5743 5744 5744 5744 5743 5742 5741 5741 5742 5744 5746 5748 5750
5647 5643 5639 5636 5633 5632 5631 5630 5632 5633 5637 5640 5645 5650 5656 5661 5667 5673 5679 5686 5692 5698 5704 5710 5715 5720 5724 5728 5731 5733 5735 5737 5737 5738 5737 5736 5736 5736 5736 5738 5740 5742 5744
5634 5629 5625 5622 5619 5617 5616 5615 5614 5615 5616 5618 5621 5626 5631 5638 5644 5651 5658 5666 5674 5681 5688 5695 5701 5707 5712 5717 5721 5724 5727 5729 5730 5731 5731 5730 5730 5730 5731 5732 5734 5736 5738
5619 5613 5609 5605 5603 5601 5600 5600 5599 5600 5600 5601 5602 5605 5609 5615 5621 5628 5636 5645 5654 5663 5671 5680 5687 5694 5700 5705 5710 5714 5718 5720 5723 5724 5725 5725 5725 5725 5725 5727 5729 5731 5732
5602 5596 5592 5588 5585 5584 5583 5583 5583 5584 5585 5586 5588 5590 5592 5595 5599 5606 5614 5623 5634 5644 5654 5663 5672 5680 5687 5693 5699 5704 5708 5712 5715 5717 5718 5719 5719 5720 5720 5721 5723 5725 5726
5583 5578 5573 5569 5567 5565 5565 5565 5566 5568 5570 5572 5574 5576 5579 5581 5583 5587 5594 5603 5613 5625 5636 5647 5657 5666 5674 5681 5688 5693 5698 5703 5706 5709 5711 5712 5713 5714 5715 5716 5717 5719 5721
5562 5556 5552 5549 5547 5546 5546 5547 5549 5551 5554 5556 5560 5563 5566 5568 5571 5574 5578 5585 5594 5605 5617 5630 5641 5652 5661 5669 5676 5683 5688 5693 5697 5701 5704 5706 5707 5708 5709 5710 5712 5713 5715
5539 5534 5531 5528 5527 5527 5528 5530 5532 5535 5538 5541 5545 5549 5552 5556 5559 5562 5566 5572 5579 5589 5600 5613 5626 5637 5647 5656 5665 5672 5678 5684 5689 5693 5696 5698 5700 5701 5703 5704 5706 5708 5709
5516 5511 5508 5507 5506 5508 5511 5513 5516 5519 5523 5527 5531 5535 5540 5544 5548 5551 5555 5559 5566 5573 5584 5596 5610 5623 5634 5644 5653 5661 5668 5674 5680 5685 5689 5691 5693 5695 5696 5698 5700 5702 5704
5495 5490 5487 5486 5487 5490 5494 5498 5502 5506 5510 5514 5519 5523 5527 5532 5536 5540 5544 5548 5554 5562 5571 5583 5595 5609 5621 5632 5642 5650 5658 5665 5671 5677 5681 5684 5687 5689 5690 5692 5694 5696 5698
5480 5474 5471 5470 5472 5475 5479 5484 5489 5493 5498 5502 5507 5512 5516 5521 5525 5529 5534 5538 5544 5551 5560 5571 5584 5597 5610 5621 5631 5640 5649 5656 5663 5669 5673 5677 5680 5682 5684 5686 5688 5690 5693
5469 5464 5461 5460 5462 5464 5468 5473 5478 5483 5488 5492 5497 5502 5506 5511 5515 5520 5524 5529 5535 5542 5551 5561 5573 5587 5600 5611 5622 5631 5640 5648 5655 5660 5665 5669 5673 5675 5678 5681 5683 5685 5688
5464 5459 5456 5455 5456 5458 5462 5466 5471 5475 5480 5485 5489 5494 5498 5503 5507 5512 5516 5521 5526 5532 5541 5552 5564 5578 5590 5602 5614 5624 5632 5641 5647 5653 5658 5663 5666 5669 5672 5675 5678 5681 5683
5464 5459 5456 5455 5455 5457 5460 5463 5467 5471 5475 5479 5483 5488 5491 5496 5500 5504 5508 5513 5519 5525 5534 5544 5556 5570 5583 5596 5607 5617 5626 5634 5640 5646 5651 5656 5660 5663 5667 5670 5673 5676 5679
5469 5463 5459 5458 5458 5459 5461 5463 5466 5470 5473 5476 5480 5483 5486 5490 5494 5498 5502 5507 5513 5519 5527 5538 5549 5563 5577 5590 5601 5611 5620 5628 5634 5640 5646 5651 5655 5658 5662 5665 5668 5672 5675
5477 5471 5467 5465 5464 5464 5465 5466 5468 5470 5473 5475 5478 5480 5483 5485 5489 5492 5497 5503 5508 5515 5523 5533 5545 5559 5573 5585 5596 5606 5615 5622 5629 5635 5641 5645 5649 5653 5657 5661 5664 5668 5672
5486 5481 5476 5473 5472 5471 5471 5471 5472 5473 5474 5476 5477 5479 5481 5483 5486 5490 5494 5500 5506 5513 5521 5532 5544 5558 5571 5582 5593 5602 5610 5618 5624 5630 5636 5640 5645 5649 5653 5657 5661 5665 5669
5496 5490 5486 5483 5481 5479 5478 5477 5477 5477 5477 5477 5478 5479 5481 5483 5486 5490 5494 5500 5506 5514 5523 5534 5546 5558 5570 5580 5590 5599 5607 5615 5621 5627 5632 5636 5641 5646 5650 5654 5658 5662 5666
5506 5500 5496 5492 5489 5487 5485 5484 5483 5482 5481 5481 5481 5482 5483 5486 5489 5493 5498 5504 5510 5518 5528 5538 5549 5560 5571 5580 5590 5598 5606 5612 5618 5623 5628 5633 5638 5643 5647 5651 5655 5659 5663
5516 5510 5505 5501 5497 5494 5492 5490 5489 5487 5487 5486 5486 5486 5488 5490 5494 5498 5504 5510 5517 5525 5534 5544 5555 5564 5573 5581 5590 5597 5604 5610 5616 5621 5626 5631 5635 5640 5644 5649 5652 5656 5659
5524 5519 5514 5509 5506 5503 5500 5498 5496 5495 5494 5493 5493 5494 5495 5498 5501 5506 5512 5518 5525 5533 5542 5551 5559 5567 5575 5583 5590 5597 5603 5609 5614 5619 5624 5629 5633 5638 5642 5646 5649 5652 5655
5533 5528 5523 5518 5515 5512 5509 5507 5505 5503 5502 5501 5501 5502 5504 5507 5511 5516 5521 5527 5534 5542 5549 5557 5564 5571 5578 5585 5591 5597 5603 5608 5613 5618 5623 5627 5632 5636 5639 5643 5646 5649 5651
5543 5537 5532 5528 5524 5521 5518 5516 5514 5513 5512 5511 5511 5512 5515 5518 5522 5527 5532 5538 5544 5550 5557 5563 5569 5575 5581 5587 5593 5598 5604 5608 5613 5618 5622 5626 5630 5634 5637 5640 5642 5644 5646
5553 5547 5542 5538 5534 5531 5528 5526 5525 5524 5523 5523 5523 5524 5527 5530 5534 5538 5543 5547 5552 5558 5563 5569 5574 5580 5585 5590 5595 5600 5605 5609 5614 5618 5622 5625 5628 5631 5633 5636 5638 5639 5640